This is the latest recevied weather packets stored in our database for station/object KN6WGU. If no packets are shown the sender has not sent any weather packets the latest 10 day(s).
| Time | Temp. | Humidity | Pressure | Rain* | Wind** | Luminosity | Snow |
|---|---|---|---|---|---|---|---|
| 1787843949 | 23.89° C | 83% | 1007.9 hPa | 0 mm | - | 88 W/m² | - |
| 1787843644 | 23.89° C | 85% | 1007.8 hPa | 0 mm | - | 135 W/m² | - |
| 1787843341 | 23.89° C | 85% | 1007.8 hPa | 0 mm | - | 106 W/m² | - |
| 1787843036 | 23.33° C | 85% | 1007.7 hPa | 0 mm | - | 131 W/m² | - |
| 1787842736 | 23.33° C | 86% | 1007.6 hPa | 0 mm | - | 76 W/m² | - |
| 1787842430 | 23.33° C | 85% | 1007.6 hPa | 0 mm | - | 64 W/m² | - |
| 1787842125 | 23.33° C | 84% | 1007.5 hPa | 0 mm | - | 71 W/m² | - |
| 1787841820 | 23.33° C | 85% | 1007.4 hPa | 0 mm | - | 189 W/m² | - |
| 1787841517 | 23.33° C | 85% | 1007.4 hPa | 0 mm | - | 60 W/m² | - |
| 1787841215 | 23.33° C | 86% | 1007.3 hPa | 0 mm | - | 56 W/m² | - |
| 1787840910 | 22.78° C | 86% | 1007.3 hPa | 0 mm | - | 56 W/m² | - |
| 1787840605 | 22.78° C | 86% | 1007.4 hPa | 0 mm | - | 57 W/m² | - |
| 1787840301 | 22.78° C | 87% | 1007.2 hPa | 0 mm | - | 55 W/m² | - |
| 1787840000 | 22.78° C | 86% | 1007.3 hPa | 0 mm | - | 79 W/m² | - |
| 1787839695 | 22.78° C | 85% | 1007.2 hPa | 0 mm | - | 55 W/m² | - |
| 1787839390 | 22.78° C | 86% | 1006.9 hPa | 0 mm | - | 56 W/m² | - |
| 1787839090 | 22.78° C | 87% | 1007.1 hPa | 0 mm | - | 153 W/m² | - |
| 1787838789 | 22.22° C | 88% | 1007.2 hPa | 0 mm | - | 88 W/m² | - |
| 1787838483 | 21.67° C | 89% | 1007.1 hPa | 0 mm | - | 59 W/m² | - |
| 1787838183 | 21.67° C | 90% | 1007 hPa | 0 mm | - | 58 W/m² | - |
| 1787837882 | 21.67° C | 91% | 1007.1 hPa | 0 mm | - | 53 W/m² | - |
| 1787837581 | 21.67° C | 91% | 1007.1 hPa | 0 mm | - | 52 W/m² | - |
| 1787837281 | 21.11° C | 92% | 1007.2 hPa | 0 mm | - | 52 W/m² | - |
| 1787836976 | 21.11° C | 93% | 1006.9 hPa | 0 mm | - | 53 W/m² | - |
| 1787836671 | 21.11° C | 94% | 1006.9 hPa | 0 mm | - | 54 W/m² | - |
* Rain latest hour (hover to see other rain measurements)
** Current wind speed in m/s (hover to see current wind gust speed)